Flag for Australia Weather past 2 weeks in Toowoomba, Queensland, Australia

Now
60 °F

Refreshingly cool.


Feels Like: 60 °F
Forecast: 50 / 65 °F
Wind: 10 mph from Northeast

Location: Oakey Aerodrome

Current Time: Jul 25, 2014 at 7:20:59 PM

Latest Report: Jul 25, 2014 at 6:00 PM


Visibility: N/A

Pressure: 30.27 "Hg

Humidity: 54%

Dew point: 43 °F

Location of ToowoombaLocation

Historic Weather in Toowoomba — Graph

°F

Toowoomba temperature yesterday

Maximum temperature yesterday: 69 °F (at 4:00 PM)
Minimum temperature yesterday: 49 °F (at 6:00 AM)
Average temperature yesterday: 57 °F

Past Weeks' High & Low Weather Summary

 TemperatureHumidityPressure
High73 °F (Jul 25, 3:00 PM)100% (Jul 17, 4:00 AM)30.37 "Hg (Jul 17, 4:00 AM)
Low23 °F (Jul 12, 7:00 AM)21% (Jul 11, 4:00 PM)29.99 "Hg (Jul 18, 4:00 AM)
Average49 °F67%30.18 "Hg
* Reported Jul 10 6:00 PM — Jul 25 6:00 PM, Toowoomba, Weather by CustomWeather, © 2014

Note: Actual official high and low records may vary slightly from our data, if they occured in-between our weather recording intervals... More about our weather records

Advertising

Toowoomba weather history for previous 24 hours

 ConditionsComfort  
Time TempWeatherWind HumidityBarometerVisibility
6:00 PM
Jul 25
60 °FRefreshingly cool.10 mph54%30.27 "HgN/A
4:00 PM71 °FMild.12 mph37%30.23 "HgN/A
3:00 PM73 °FMild.10 mph36%30.23 "HgN/A
1:00 PM71 °FMild.9 mph38%30.26 "HgN/A
12:00 PM68 °FMild.13 mph44%30.30 "HgN/A
10:00 AM63 °FMild.13 mph66%30.34 "HgN/A
9:00 AM61 °FCool.13 mph76%30.33 "HgN/A
7:00 AM45 °FCool.9 mph99%30.30 "HgN/A
6:00 AM45 °FCool.8 mph99%30.29 "Hg0 mi
4:00 AM46 °FCool.8 mph91%30.27 "HgN/A
3:00 AM49 °FCool.10 mph93%30.26 "HgN/A
1:00 AM48 °FCool.8 mph95%30.26 "HgN/A
12:00 AM50 °FCool.8 mph90%30.26 "HgN/A
10:00 PM
Jul 24
52 °FCool.10 mph84%30.27 "HgN/A
9:00 PM55 °FCool.13 mph76%30.25 "HgN/A
7:00 PM54 °FCool.10 mph65%30.22 "HgN/A
Weather by CustomWeather, © 2014

See weather overviewHow to use our weather pages